| time (UTC) | temp C | wind direction | speed KPH | gust KPH | rain 1hr cm | rain 24hr cm | rain mn cm | humidity % | barometer mb |
| 20260507221016 | 12 | 0.0 | 1.6 | 0.00 | 0.23 | 0.23 | 91 | 1011.0 | |
| 20260507220016 | 12 | 0.0 | 1.6 | 0.00 | 0.23 | 0.23 | 91 | 1010.9 | |
| 20260507215016 | 12 | 0.0 | 1.6 | 0.00 | 0.23 | 0.23 | 91 | 1010.9 | |
| 20260507214016 | 12 | 90 | 1.6 | 3.2 | 0.00 | 0.23 | 0.23 | 91 | 1011.1 |
| 20260507213016 | 12 | 0.0 | 3.2 | 0.03 | 0.23 | 0.23 | 92 | 1010.9 | |
| 20260507212016 | 12 | 90 | 1.6 | 3.2 | 0.05 | 0.23 | 0.23 | 91 | 1010.8 |
| 20260507211036 | 12 | 0.0 | 6.4 | 0.05 | 0.23 | 0.23 | 92 | 1010.8 | |
| 20260507210016 | 12 | 0.0 | 3.2 | 0.08 | 0.23 | 0.23 | 92 | 1010.7 | |
| 20260507205017 | 12 | 0.0 | 0.0 | 0.15 | 0.23 | 0.23 | 92 | 1010.9 | |
| 20260507204016 | 12 | 0.0 | 0.0 | 0.15 | 0.23 | 0.23 | 92 | 1011.1 | |
| 20260507203016 | 12 | 0.0 | 0.0 | 0.13 | 0.20 | 0.20 | 91 | 1011.3 | |
| 20260507202156 | 12 | 0.0 | 0.0 | 0.13 | 0.18 | 0.18 | 90 | 1011.1 | |
| 20260507201016 | 12 | 0.0 | 0.0 | 0.13 | 0.18 | 0.18 | 89 | 1011.1 | |
| 20260507200016 | 12 | 0.0 | 1.6 | 0.10 | 0.15 | 0.15 | 88 | 1011.4 | |
| 20260507195017 | 12 | 0.0 | 0.0 | 0.03 | 0.08 | 0.08 | 87 | 1011.3 | |
| 20260507194016 | 13 | 0.0 | 0.0 | 0.03 | 0.08 | 0.08 | 84 | 1011.5 | |
| 20260507193016 | 13 | 0.0 | 0.0 | 0.03 | 0.08 | 0.08 | 83 | 1011.3 | |
| 20260507192016 | 13 | 0.0 | 0.0 | 0.00 | 0.05 | 0.05 | 82 | 1011.8 | |
| 20260507191017 | 13 | 0.0 | 0.0 | 0.00 | 0.05 | 0.05 | 81 | 1011.8 | |
| 20260507190016 | 13 | 0.0 | 0.0 | 0.00 | 0.05 | 0.05 | 82 | 1011.7 | |
| 20260507185036 | 13 | 0.0 | 1.6 | 0.00 | 0.05 | 0.05 | 81 | 1011.6 | |
| 20260507184016 | 13 | 0.0 | 0.0 | 0.00 | 0.05 | 0.05 | 80 | 1011.6 | |
| 20260507183016 | 13 | 0.0 | 0.0 | 0.00 | 0.05 | 0.05 | 80 | 1011.9 | |
| 20260507182016 | 14 | 0.0 | 0.0 | 0.00 | 0.05 | 0.05 | 81 | 1011.9 | |
| 20260507181017 | 13 | 0.0 | 3.2 | 0.00 | 0.05 | 0.05 | 82 | 1011.8 | |
| 20260507180016 | 13 | 0.0 | 1.6 | 0.00 | 0.05 | 0.05 | 83 | 1011.9 | |
| 20260507175016 | 13 | 0.0 | 1.6 | 0.00 | 0.05 | 0.05 | 82 | 1012.0 | |
| 20260507174016 | 13 | 0.0 | 3.2 | 0.00 | 0.05 | 0.05 | 83 | 1012.0 | |
| 20260507173016 | 13 | 0.0 | 0.0 | 0.00 | 0.05 | 0.05 | 83 | 1012.3 | |
| 20260507172016 | 13 | 0.0 | 0.0 | 0.00 | 0.05 | 0.05 | 84 | 1012.2 | |
| 20260507171016 | 13 | 0.0 | 1.6 | 0.00 | 0.05 | 0.05 | 85 | 1012.4 | |
| 20260507170016 | 13 | 0.0 | 3.2 | 0.00 | 0.05 | 0.05 | 85 | 1012.5 | |
| 20260507165016 | 12 | 0.0 | 1.6 | 0.00 | 0.05 | 0.05 | 86 | 1012.6 | |
| 20260507164036 | 12 | 0.0 | 1.6 | 0.00 | 0.05 | 0.05 | 89 | 1012.7 | |
| 20260507163037 | 12 | 0.0 | 0.0 | 0.03 | 0.05 | 0.05 | 91 | 1012.7 | |
| 20260507162017 | 12 | 0.0 | 0.0 | 0.03 | 0.05 | 0.05 | 91 | 1012.7 | |
| 20260507161016 | 12 | 0.0 | 1.6 | 0.03 | 0.08 | 0.05 | 91 | 1013.0 | |
| 20260507160016 | 12 | 0.0 | 0.0 | 0.03 | 0.08 | 0.05 | 93 | 1013.0 | |
| 20260507155016 | 12 | 0.0 | 0.0 | 0.03 | 0.10 | 0.05 | 92 | 1013.1 | |
| 20260507154016 | 12 | 0.0 | 0.0 | 0.03 | 0.10 | 0.05 | 91 | 1013.1 | |
| 20260507153036 | 12 | 0.0 | 0.0 | 0.00 | 0.08 | 0.03 | 89 | 1013.1 | |
| 20260507152016 | 13 | 0.0 | 0.0 | 0.00 | 0.08 | 0.03 | 88 | 1013.0 | |
| 20260507151016 | 13 | 0.0 | 0.0 | 0.00 | 0.08 | 0.03 | 87 | 1012.9 | |
| 20260507150016 | 13 | 0.0 | 0.0 | 0.00 | 0.08 | 0.03 | 86 | 1013.0 | |
| 20260507145016 | 13 | 0.0 | 0.0 | 0.00 | 0.08 | 0.03 | 86 | 1012.9 | |
| 20260507144016 | 13 | 0.0 | 1.6 | 0.00 | 0.08 | 0.03 | 86 | 1012.7 | |
| 20260507143016 | 13 | 0.0 | 3.2 | 0.00 | 0.10 | 0.03 | 86 | 1012.8 | |
| 20260507142016 | 13 | 0.0 | 3.2 | 0.00 | 0.15 | 0.03 | 86 | 1013.0 | |
| 20260507141016 | 13 | 0.0 | 1.6 | 0.00 | 0.23 | 0.03 | 88 | 1013.1 | |
| 20260507140016 | 13 | 0.0 | 1.6 | 0.00 | 0.28 | 0.03 | 89 | 1013.1 | |
| 20260507135017 | 13 | 0.0 | 3.2 | 0.00 | 0.30 | 0.03 | 88 | 1013.1 | |
| 20260507134015 | 13 | 68 | 1.6 | 3.2 | 0.00 | 0.30 | 0.03 | 88 | 1013.1 |
| 20260507133016 | 13 | 0.0 | 1.6 | 0.00 | 0.30 | 0.03 | 88 | 1012.9 | |
| 20260507132016 | 13 | 0.0 | 3.2 | 0.00 | 0.30 | 0.03 | 88 | 1012.9 | |
| 20260507131016 | 14 | 0.0 | 3.2 | 0.00 | 0.30 | 0.03 | 88 | 1012.9 | |
| 20260507130016 | 14 | 0.0 | 1.6 | 0.00 | 0.30 | 0.03 | 89 | 1012.7 | |
| 20260507125017 | 13 | 0.0 | 0.0 | 0.00 | 0.30 | 0.03 | 89 | 1012.8 | |
| 20260507124016 | 13 | 0.0 | 0.0 | 0.00 | 0.30 | 0.03 | 89 | 1012.9 | |
| 20260507123016 | 13 | 0.0 | 0.0 | 0.00 | 0.30 | 0.03 | 89 | 1012.9 | |
| 20260507122016 | 13 | 0.0 | 0.0 | 0.00 | 0.30 | 0.03 | 88 | 1012.8 | |
| 20260507121016 | 13 | 0.0 | 0.0 | 0.00 | 0.30 | 0.03 | 88 | 1012.7 | |
| 20260507120016 | 13 | 0.0 | 0.0 | 0.00 | 0.30 | 0.03 | 88 | 1012.4 | |
| 20260507115036 | 13 | 0.0 | 0.0 | 0.00 | 0.30 | 0.03 | 88 | 1012.8 | |
| 20260507114016 | 13 | 0.0 | 0.0 | 0.00 | 0.30 | 0.03 | 88 | 1012.8 | |
| 20260507113036 | 13 | 0.0 | 0.0 | 0.00 | 0.30 | 0.03 | 88 | 1012.4 | |
| 20260507112015 | 13 | 0.0 | 0.0 | 0.00 | 0.30 | 0.03 | 88 | 1012.2 | |
| 20260507111015 | 13 | 0.0 | 0.0 | 0.00 | 0.30 | 0.03 | 87 | 1012.3 | |
| 20260507110015 | 13 | 0.0 | 0.0 | 0.00 | 0.30 | 0.03 | 87 | 1012.4 | |
| 20260507105036 | 13 | 0.0 | 0.0 | 0.00 | 0.30 | 0.03 | 86 | 1012.0 | |
| 20260507104016 | 13 | 0.0 | 0.0 | 0.00 | 0.30 | 0.03 | 86 | 1012.1 | |
| 20260507103015 | 13 | 0.0 | 0.0 | 0.00 | 0.30 | 0.03 | 85 | 1012.0 | |
| 20260507102016 | 13 | 0.0 | 3.2 | 0.00 | 0.30 | 0.03 | 86 | 1011.6 | |
| 20260507101015 | 13 | 0.0 | 3.2 | 0.00 | 0.30 | 0.03 | 85 | 1011.6 | |
| 20260507100015 | 13 | 45 | 1.6 | 4.8 | 0.00 | 0.30 | 0.03 | 86 | 1011.9 |
| 20260507095017 | 13 | 0.0 | 0.0 | 0.00 | 0.30 | 0.03 | 89 | 1012.2 | |
| 20260507094016 | 13 | 0.0 | 0.0 | 0.03 | 0.30 | 0.03 | 89 | 1012.0 | |
| 20260507093015 | 13 | 0.0 | 0.0 | 0.03 | 0.30 | 0.03 | 89 | 1012.1 | |
| 20260507092016 | 13 | 0.0 | 0.0 | 0.03 | 0.30 | 0.03 | 92 | 1011.9 | |
| 20260507091016 | 14 | 0.0 | 0.0 | 0.03 | 0.30 | 0.03 | 91 | 1011.7 | |
| 20260507090015 | 14 | 0.0 | 3.2 | 0.03 | 0.30 | 0.03 | 92 | 1011.9 | |
| 20260507085015 | 15 | 0.0 | 3.2 | 0.03 | 0.30 | 0.03 | 91 | 1011.8 | |
| 20260507084015 | 15 | 68 | 1.6 | 3.2 | 0.00 | 0.28 | 0.00 | 90 | 1011.5 |
| 20260507083035 | 15 | 0.0 | 4.8 | 0.00 | 0.28 | 0.00 | 91 | 1011.7 | |
| 20260507082015 | 15 | 68 | 3.2 | 6.4 | 0.00 | 0.28 | 0.00 | 91 | 1011.5 |
| 20260507081015 | 16 | 68 | 1.6 | 4.8 | 0.00 | 0.28 | 0.00 | 92 | 1011.6 |
| 20260507080015 | 17 | 45 | 1.6 | 4.8 | 0.00 | 0.28 | 0.00 | 93 | 1011.3 |
| 20260507075016 | 17 | 68 | 3.2 | 8.0 | 0.00 | 0.28 | 0.00 | 94 | 1010.5 |
| 20260507074015 | 18 | 45 | 1.6 | 4.8 | 0.00 | 0.28 | 0.00 | 95 | 1010.5 |
| 20260507073015 | 18 | 0.0 | 1.6 | 0.00 | 0.28 | 0.00 | 95 | 1010.5 | |
| 20260507072015 | 18 | 0.0 | 0.0 | 0.00 | 0.28 | 0.00 | 95 | 1010.4 | |
| 20260507071015 | 18 | 0.0 | 0.0 | 0.00 | 0.28 | 0.00 | 94 | 1010.6 | |
| 20260507070015 | 18 | 0.0 | 0.0 | 0.00 | 0.28 | 0.00 | 94 | 1010.7 | |
| 20260507065015 | 18 | 0.0 | 0.0 | 0.00 | 0.28 | 0.00 | 93 | 1010.3 | |
| 20260507064015 | 19 | 0.0 | 0.0 | 0.00 | 0.28 | 0.00 | 92 | 1010.0 | |
| 20260507063015 | 19 | 0.0 | 0.0 | 0.00 | 0.28 | 0.00 | 90 | 1009.8 | |
| 20260507062015 | 20 | 0.0 | 1.6 | 0.00 | 0.28 | 0.00 | 90 | 1009.7 | |
| 20260507061015 | 20 | 0.0 | 1.6 | 0.00 | 0.28 | 0.00 | 89 | 1009.4 | |
| 20260507060015 | 20 | 0.0 | 1.6 | 0.00 | 0.28 | 0.00 | 89 | 1009.2 | |
| 20260507055015 | 20 | 0.0 | 3.2 | 0.00 | 0.28 | 0.00 | 88 | 1009.6 | |
| 20260507054035 | 20 | 0.0 | 3.2 | 0.00 | 0.28 | 0.00 | 87 | 1009.4 | |
| 20260507053015 | 20 | 0.0 | 3.2 | 0.00 | 0.28 | 0.00 | 87 | 1009.7 | |
| 20260507052015 | 20 | 0.0 | 1.6 | 0.00 | 0.28 | 0.00 | 87 | 1009.8 | |
| 20260507051015 | 20 | 0.0 | 3.2 | 0.00 | 0.28 | 0.00 | 87 | 1010.1 | |
| 20260507050015 | 20 | 0.0 | 3.2 | 0.00 | 0.28 | 0.00 | 87 | 1010.5 | |
| 20260507045015 | 20 | 0.0 | 4.8 | 0.00 | 0.28 | 0.00 | 87 | 1010.6 | |
| 20260507044015 | 20 | 0.0 | 3.2 | 0.00 | 0.28 | 0.00 | 87 | 1010.8 | |
| 20260507043015 | 20 | 248 | 1.6 | 6.4 | 0.00 | 0.28 | 0.00 | 87 | 1010.9 |
| 20260507042015 | 20 | 0.0 | 3.2 | 0.00 | 0.28 | 0.00 | 87 | 1011.0 | |
| 20260507041015 | 20 | 0.0 | 3.2 | 0.00 | 0.28 | 0.00 | 87 | 1010.5 | |
| 20260507040015 | 20 | 270 | 1.6 | 4.8 | 0.00 | 0.28 | 0.00 | 87 | 1010.6 |
| 20260507035017 | 20 | 270 | 1.6 | 8.0 | 0.00 | 0.28 | 0.28 | 87 | 1010.8 |
| 20260507034016 | 20 | 270 | 1.6 | 8.0 | 0.00 | 0.28 | 0.28 | 87 | 1011.2 |
| 20260507033015 | 20 | 270 | 1.6 | 3.2 | 0.00 | 0.28 | 0.28 | 86 | 1010.9 |
| 20260507032017 | 20 | 270 | 1.6 | 3.2 | 0.00 | 0.28 | 0.28 | 86 | 1010.7 |
| 20260507031017 | 20 | 0 | 1.6 | 3.2 | 0.00 | 0.28 | 0.28 | 86 | 1010.4 |
| 20260507030017 | 20 | 270 | 1.6 | 6.4 | 0.00 | 0.28 | 0.28 | 86 | 1010.3 |
| 20260507025017 | 20 | 270 | 1.6 | 4.8 | 0.00 | 0.28 | 0.28 | 86 | 1010.1 |
| 20260507024017 | 20 | 270 | 1.6 | 6.4 | 0.00 | 0.28 | 0.28 | 86 | 1010.2 |
| 20260507023017 | 20 | 0.0 | 3.2 | 0.00 | 0.28 | 0.28 | 86 | 1010.4 | |
| 20260507022017 | 20 | 270 | 1.6 | 6.4 | 0.00 | 0.28 | 0.28 | 86 | 1010.4 |
| 20260507021017 | 20 | 270 | 1.6 | 11.3 | 0.00 | 0.28 | 0.28 | 86 | 1010.8 |
| 20260507020037 | 20 | 270 | 1.6 | 6.4 | 0.00 | 0.28 | 0.28 | 86 | 1010.7 |
| 20260507015017 | 20 | 270 | 1.6 | 4.8 | 0.00 | 0.28 | 0.28 | 86 | 1010.7 |
| 20260507014037 | 20 | 0.0 | 3.2 | 0.00 | 0.28 | 0.28 | 86 | 1010.7 | |
| 20260507013037 | 20 | 0.0 | 6.4 | 0.00 | 0.28 | 0.28 | 85 | 1010.7 | |
| 20260507012057 | 20 | 270 | 1.6 | 8.0 | 0.00 | 0.28 | 0.28 | 85 | 1010.7 |
| 20260507011017 | 20 | 225 | 1.6 | 3.2 | 0.00 | 0.28 | 0.28 | 85 | 1010.7 |
| 20260507010017 | 20 | 0.0 | 1.6 | 0.00 | 0.28 | 0.28 | 85 | 1010.4 | |
| 20260507005017 | 20 | 270 | 1.6 | 8.0 | 0.00 | 0.28 | 0.28 | 84 | 1010.2 |
| 20260507004016 | 20 | 248 | 1.6 | 6.4 | 0.00 | 0.28 | 0.28 | 84 | 1010.5 |
| 20260507003016 | 20 | 270 | 1.6 | 8.0 | 0.00 | 0.28 | 0.28 | 83 | 1010.9 |
| 20260507002017 | 21 | 0.0 | 4.8 | 0.00 | 0.28 | 0.28 | 83 | 1010.7 | |
| 20260507001016 | 21 | 293 | 1.6 | 8.0 | 0.00 | 0.28 | 0.28 | 82 | 1010.8 |
| 20260507000116 | 21 | 270 | 1.6 | 8.0 | 0.00 | 0.28 | 0.28 | 82 | 1010.6 |
| 20260506235017 | 21 | 293 | 1.6 | 8.0 | 0.00 | 0.28 | 0.28 | 81 | 1010.5 |
| 20260506234017 | 21 | 270 | 1.6 | 4.8 | 0.00 | 0.28 | 0.28 | 80 | 1010.4 |
| 20260506233016 | 21 | 270 | 1.6 | 6.4 | 0.00 | 0.28 | 0.28 | 80 | 1010.2 |
| 20260506232017 | 22 | 270 | 3.2 | 6.4 | 0.00 | 0.28 | 0.28 | 79 | 1010.3 |
| 20260506231017 | 22 | 293 | 3.2 | 17.7 | 0.00 | 0.28 | 0.28 | 78 | 1010.3 |
| 20260506230016 | 22 | 293 | 1.6 | 8.0 | 0.00 | 0.28 | 0.28 | 78 | 1010.2 |
| 20260506225016 | 22 | 293 | 1.6 | 4.8 | 0.00 | 0.28 | 0.28 | 79 | 1010.3 |
| 20260506224016 | 22 | 270 | 1.6 | 4.8 | 0.00 | 0.28 | 0.28 | 79 | 1010.5 |
| 20260506223017 | 21 | 0 | 1.6 | 6.4 | 0.00 | 0.28 | 0.28 | 79 | 1010.3 |
| 20260506222016 | 21 | 270 | 1.6 | 12.9 | 0.00 | 0.28 | 0.28 | 78 | 1010.4 |